Flag for Norway Weather past 2 weeks in Gjøvik, Norway

Now
49 °F

Cool.


Feels Like: 46 °F
Forecast: 44 / 51 °F
Wind: 7 mph from Southeast

Location: Lillehammer-Saetherengen

Current Time: Oct 26, 2014 at 2:36:45 AM

Latest Report: Oct 26, 2014 at 2:00 AM


Visibility: N/A

Pressure: 29.65 "Hg

Humidity: 75%

Dew point: 41 °F

Location of GjøvikLocation

Historic Weather in Gjøvik — Graph

°F

Gjøvik temperature yesterday

Maximum temperature yesterday: 53 °F (at 12:00 AM)
Minimum temperature yesterday: 40 °F (at 10:00 AM)
Average temperature yesterday: 48 °F

Past Weeks' High & Low Weather Summary

 TemperatureHumidityPressure
High53 °F (Oct 24, 9:00 PM)98% (Oct 23, 12:00 PM)30.15 "Hg (Oct 23, 12:00 PM)
Low32 °F (Oct 23, 10:00 AM)64% (Oct 25, 2:00 PM)29.23 "Hg (Oct 20, 3:00 AM)
Average41 °F91%29.82 "Hg
* Reported Oct 11 2:00 AM — Oct 26 2:00 AM, Gjøvik, Weather by CustomWeather, © 2014

Note: Actual official high and low records may vary slightly from our data, if they occured in-between our weather recording intervals... More about our weather records

Advertising

Gjøvik weather history for previous 24 hours

 ConditionsComfort  
Time TempWeatherWind HumidityBarometerVisibility
2:00 AM
Oct 26
48 °FCool.6 mph75%29.66 "HgN/A
1:00 AM48 °FCool.7 mph73%29.66 "HgN/A
12:00 AM48 °FCool.6 mph74%29.69 "HgN/A
11:00 PM
Oct 25
48 °FCool.7 mph74%29.69 "HgN/A
10:00 PM48 °FCool.6 mph76%29.69 "HgN/A
9:00 PM48 °FCool.7 mph75%29.69 "HgN/A
8:00 PM49 °FCool.6 mph74%29.69 "HgN/A
7:00 PM48 °FCool.6 mph75%29.70 "HgN/A
6:00 PM48 °FCool.5 mph73%29.70 "HgN/A
5:00 PM49 °FCool.6 mph68%29.70 "HgN/A
4:00 PM52 °FCool.6 mph64%29.70 "HgN/A
3:00 PM52 °FCool.5 mph64%29.72 "HgN/A
2:00 PM51 °FCool.5 mph64%29.72 "HgN/A
1:00 PM51 °FCool.2 mph65%29.72 "HgN/A
12:00 PM48 °FCool.1 mph78%29.73 "HgN/A
11:00 AM43 °FQuite cool.1 mph82%29.73 "HgN/A
10:00 AM40 °FQuite cool.1 mph91%29.72 "HgN/A
9:00 AM41 °FQuite cool.2 mph88%29.71 "HgN/A
8:00 AM44 °FQuite cool.1 mph87%29.68 "HgN/A
7:00 AM45 °FCool.1 mph91%29.68 "HgN/A
6:00 AM47 °FCool.1 mph93%29.68 "HgN/A
5:00 AM48 °FCool.2 mph91%29.67 "HgN/A
4:00 AM50 °FCool.3 mph85%29.67 "HgN/A
3:00 AM51 °FCool.5 mph85%29.67 "HgN/A
2:00 AM52 °FCool.6 mph83%29.67 "HgN/A
Weather by CustomWeather, © 2014

See weather overviewHow to use our weather pages